Weather History for Houston Intercontinental, TX

Change the Weather History Date:

Friday, December 21, 2012

  Actual Average Record
Temperature  
Mean Temperature 47 °F -  
Max Temperature 62 °F 60 °F 81 °F (2010)
Min Temperature 32 °F 39 °F 32 °F (2012)
Degree Days  
Heating Degree Days 18    
Moisture  
Dew Point 21 °F    
Average Humidity 39    
Maximum Humidity 73    
Minimum Humidity 8    
Precipitation  
Precipitation 0.00 in - - ()
Sea Level Pressure  
Sea Level Pressure 30.44 in    
Wind  
Wind Speed 3 mph (WSW)    
Max Wind Speed 6 mph    
Max Gust Speed -    
Visibility 10 miles    
Events      
Averages and records for this station are not official NWS values.
T = Trace of Precipitation, MM = Missing Value Source: NWS Daily Summary

Daily Weather History Graph

Daily Weather History Graph

Search for Another Location

Airport:

Trip Planner

Search our weather history database for the weather conditions in past years. The results will help you decide how hot, cold, wet, or windy it might be!

Date:

Astronomy

Dec. 21, 2012 Rise Set
Actual Time 7:13 AM CST 5:26 PM CST
Civil Twilight 6:46 AM CST 5:52 PM CST
Nautical Twilight 6:17 AM CST 6:22 PM CST
Astronomical Twilight 5:47 AM CST 6:51 PM CST
Moon 12:58 PM CST (12/21) 1:18 AM CST (12/21)
Length of Visible Light 11h 05m
Length of Day
10h 12m
Waxing Gibbous, 65% of the Moon is Illuminated
Dec 21
Waxing Gibbous
Dec 28
Full
Jan 4
Last Quarter
Jan 11
New
Jan 18
First Quarter

Hourly Weather History & Observations

Time (CST) Temp. Windchill Dew Point Humidity Pressure Visibility Wind Dir Wind Speed Gust Speed Precip Events Conditions
12:53 AM 39.0 °F 35.7 °F 19.9 °F 46% 30.45 in 10.0 mi West 4.6 mph - N/A   Partly Cloudy
1:53 AM 39.0 °F 36.8 °F 19.9 °F 46% 30.46 in 10.0 mi West 3.5 mph - N/A   Partly Cloudy
2:53 AM 37.9 °F 34.4 °F 19.9 °F 48% 30.46 in 10.0 mi WNW 4.6 mph - N/A   Clear
3:53 AM 37.0 °F 33.3 °F 19.0 °F 48% 30.46 in 10.0 mi WNW 4.6 mph - N/A   Clear
4:53 AM 34.0 °F - 23.0 °F 64% 30.46 in 10.0 mi Calm Calm - N/A   Clear
5:53 AM 34.0 °F - 21.9 °F 61% 30.48 in 10.0 mi Calm Calm - N/A   Clear
6:53 AM 33.1 °F - 21.9 °F 64% 30.49 in 10.0 mi Calm Calm - N/A   Partly Cloudy
7:53 AM 37.0 °F - 21.9 °F 54% 30.51 in 10.0 mi Calm Calm - N/A   Mostly Cloudy
8:53 AM 41.0 °F - 19.9 °F 43% 30.53 in 10.0 mi Calm Calm - N/A   Scattered Clouds
9:53 AM 48.0 °F - 19.0 °F 32% 30.52 in 10.0 mi Calm Calm - N/A   Scattered Clouds
10:53 AM 54.0 °F - 16.0 °F 22% 30.52 in 10.0 mi North 4.6 mph - N/A   Scattered Clouds
11:53 AM 57.0 °F - 12.9 °F 18% 30.48 in 10.0 mi ENE 4.6 mph - N/A   Scattered Clouds
12:53 PM 59.0 °F - 12.9 °F 16% 30.44 in 10.0 mi Calm Calm - N/A   Clear
1:08 PM 59.0 °F - 14.0 °F 17% 30.43 in 10.0 mi Calm Calm - N/A   Mostly Cloudy
1:53 PM 60.1 °F - 15.1 °F 17% 30.41 in 10.0 mi South 5.8 mph - N/A   Mostly Cloudy
2:53 PM 60.1 °F - 15.1 °F 17% 30.39 in 10.0 mi Calm Calm - N/A   Mostly Cloudy
3:53 PM 61.0 °F - 16.0 °F 17% 30.38 in 10.0 mi South 4.6 mph - N/A   Scattered Clouds
4:53 PM 57.9 °F - 18.0 °F 21% 30.38 in 10.0 mi SW 3.5 mph - N/A   Scattered Clouds
5:53 PM 48.9 °F - 27.0 °F 43% 30.38 in 10.0 mi Calm Calm - N/A   Scattered Clouds
6:53 PM 48.9 °F - 28.9 °F 46% 30.40 in 10.0 mi SSW 4.6 mph - N/A   Scattered Clouds
7:53 PM 51.1 °F - 24.1 °F 35% 30.39 in 10.0 mi SSW 4.6 mph - N/A   Mostly Cloudy
8:53 PM 48.9 °F - 25.0 °F 39% 30.39 in 10.0 mi Calm Calm - N/A   Mostly Cloudy
9:53 PM 48.9 °F - 24.1 °F 38% 30.39 in 10.0 mi SW 4.6 mph - N/A   Scattered Clouds
10:53 PM 41.0 °F - 30.0 °F 65% 30.40 in 10.0 mi Calm Calm - N/A   Partly Cloudy
11:53 PM 41.0 °F 39.0 °F 33.1 °F 73% 30.40 in 10.0 mi SW 3.5 mph - N/A   Partly Cloudy